Greenville, ME

6:00 PM EST on November 15, 2019 (GMT -0500)
Greenville

Weather History for KGNR - September, 2019

Change the Weather History Date:

Wednesday, September 18, 2019

  Actual Average (WUND) Record (WUND)
Temperature  
Mean Temperature 48 °F -  
Max Temperature 57 °F - - (-1)
Min Temperature 39 °F - - (-1)
Degree Days  
Heating Degree Days 17    
Moisture  
Dew Point 36 °F    
Average Humidity 69    
Maximum Humidity 89    
Minimum Humidity 44    
Precipitation  
Precipitation 0.00 in - - ()
Sea Level Pressure  
Sea Level Pressure 30.32 in    
Wind  
Wind Speed 5 mph ()    
Max Wind Speed 10 mph    
Max Gust Speed -    
Averages and records for this station are not official NWS values.
T = Trace of Precipitation, MM = Missing Value Source: Averaged Metar Reports

Daily Weather History Graph

Daily Weather History Graph

Search for Another Location

Airport or City:

Astronomy

Sep. 18, 2019 Rise Set
Actual Time 6:20 AM EDT 6:44 PM EDT
Civil Twilight 5:50 AM EDT 7:13 PM EDT
Nautical Twilight 5:15 AM EDT 7:48 PM EDT
Astronomical Twilight 4:39 AM EDT 8:24 PM EDT
Moon 9:04 PM EDT (9/18) 10:30 AM EDT (9/18)
Length of Visible Light 13h 23m
Length of Day
12h 23m
Waning Gibbous, 82% of the Moon is Illuminated
Sep 18
Waning Gibbous
Sep 21
Last Quarter
Sep 28
New
Oct 5
First Quarter
Oct 13
Full

Hourly Weather History & Observations

Time (EDT) Temp. Windchill Dew Point Humidity Pressure Visibility Wind Dir Wind Speed Gust Speed Precip Events Conditions
12:56 AM 42.1 °F 38.4 °F 37.0 °F 82% 30.25 in - North 5.8 mph - N/A   Unknown
1:56 AM 41.0 °F 38.0 °F 37.0 °F 86% 30.26 in - North 4.6 mph - N/A   Unknown
2:56 AM 39.9 °F 35.8 °F 37.0 °F 89% 30.26 in - NNE 5.8 mph - N/A   Unknown
3:56 AM 39.9 °F 37.8 °F 37.0 °F 89% 30.27 in - NE 3.5 mph - N/A   Unknown
4:56 AM 39.0 °F 34.0 °F 35.1 °F 86% 30.27 in - North 6.9 mph - N/A   Unknown
5:56 AM 39.0 °F 36.8 °F 35.1 °F 86% 30.29 in - North 3.5 mph - N/A   Unknown
6:56 AM 39.9 °F 37.8 °F 35.1 °F 83% 30.31 in - WNW 3.5 mph - N/A   Unknown
7:56 AM 43.0 °F 38.2 °F 37.0 °F 80% 30.33 in - NNW 8.1 mph - N/A   Unknown
8:56 AM 46.0 °F 42.5 °F 37.9 °F 73% 30.35 in - NW 6.9 mph - N/A   Unknown
9:56 AM 48.0 °F - 37.0 °F 66% 30.35 in - NW 10.4 mph - N/A   Unknown
10:56 AM 51.1 °F - 37.0 °F 59% 30.36 in - NNW 8.1 mph - N/A   Unknown
11:56 AM 53.1 °F - 36.0 °F 52% 30.36 in - NW 8.1 mph - N/A   Unknown
12:56 PM 53.1 °F - 35.1 °F 50% 30.36 in - NW 8.1 mph - N/A   Unknown
1:56 PM 55.9 °F - 36.0 °F 47% 30.35 in - NNW 8.1 mph - N/A   Unknown
2:56 PM 57.0 °F - 35.1 °F 44% 30.33 in - NW 10.4 mph - N/A   Unknown
3:56 PM 57.0 °F - 35.1 °F 44% 30.32 in - WNW 8.1 mph - N/A   Unknown
4:56 PM 55.9 °F - 35.1 °F 45% 30.32 in - NW 5.8 mph - N/A   Unknown
5:56 PM 53.1 °F - 36.0 °F 52% 30.32 in - NW 4.6 mph - N/A   Unknown
6:56 PM 48.9 °F - 37.0 °F 64% 30.35 in - NNW 4.6 mph - N/A   Unknown
7:56 PM 46.0 °F 44.8 °F 36.0 °F 68% 30.35 in - ENE 3.5 mph - N/A   Unknown
8:56 PM 44.1 °F - 37.0 °F 76% 30.35 in - Calm Calm - N/A   Unknown
9:56 PM 43.0 °F 41.3 °F 36.0 °F 76% 30.37 in - NE 3.5 mph - N/A   Unknown
10:56 PM 43.0 °F - 36.0 °F 76% 30.35 in - Calm Calm - N/A   Unknown
11:56 PM 41.0 °F - 34.0 °F 76% 30.35 in - Calm Calm - N/A   Unknown